Weather History for K2V5 - March, 2014

Change the Weather History Date:

Monday, March 17, 2014

  Actual Average (KHEQ) Record (KHEQ)
Temperature  
Mean Temperature 54 °F -  
Max Temperature 75 °F 55 °F 51 °F (2015)
Min Temperature 34 °F 26 °F 33 °F (2015)
Degree Days  
Heating Degree Days 10    
Growing Degree Days 4 (Base 50)    
Moisture  
Dew Point 20 °F    
Average Humidity 37    
Maximum Humidity 69    
Minimum Humidity 7    
Precipitation  
Precipitation 0.00 in - - ()
Sea Level Pressure  
Sea Level Pressure 29.52 in    
Wind  
Wind Speed 13 mph (WSW)    
Max Wind Speed 32 mph    
Max Gust Speed 46 mph    
Visibility 10 miles    
Events      
Averages and records for this station are not official NWS values.
T = Trace of Precipitation, MM = Missing Value Source: NWS Daily Summary

Daily Weather History Graph

Daily Weather History Graph

Search for Another Location

Airport or City:

Trip Planner

Search our weather history database for the weather conditions in past years. The results will help you decide how hot, cold, wet, or windy it might be!

Date:

Astronomy

Mar. 17, 2014 Rise Set
Actual Time 6:57 AM MDT 6:57 PM MDT
Civil Twilight 6:30 AM MDT 7:25 PM MDT
Nautical Twilight 5:58 AM MDT 7:56 PM MDT
Astronomical Twilight 5:26 AM MDT 8:28 PM MDT
Moon 8:16 PM MDT (3/17) 7:13 AM MDT (3/17)
Length of Visible Light 12h 54m
Length of Day
12h 00m
Full, 99% of the Moon is Illuminated
Mar 17
Full
Mar 23
Last Quarter
Mar 30
New
Apr 7
First Quarter
Apr 15
Full

Hourly Weather History & Observations

Time (MDT) Temp. Windchill Dew Point Humidity Pressure Visibility Wind Dir Wind Speed Gust Speed Precip Events Conditions
12:15 AM 41.4 °F 36.2 °F 26.1 °F 55% 29.90 in 10.0 mi WSW 8.1 mph - N/A   Clear
12:35 AM 41.4 °F 34.7 °F 26.1 °F 55% 29.89 in 10.0 mi SW 11.5 mph - N/A   Clear
12:55 AM 41.9 °F 35.4 °F 26.1 °F 53% 29.88 in 10.0 mi SW 11.5 mph - N/A   Clear
1:15 AM 41.4 °F 35.7 °F 26.1 °F 55% 29.86 in 10.0 mi West 9.2 mph - N/A   Clear
1:35 AM 41.4 °F 35.7 °F 26.4 °F 55% 29.86 in 10.0 mi WSW 9.2 mph - N/A   Clear
1:55 AM 41.0 °F 33.9 °F 26.8 °F 57% 29.85 in 10.0 mi WSW 12.7 mph - N/A   Clear
2:15 AM 41.2 °F 34.5 °F 26.8 °F 57% 29.83 in 10.0 mi WSW 11.5 mph - N/A   Clear
2:35 AM 40.6 °F 34.8 °F 26.8 °F 58% 29.83 in 10.0 mi WSW 9.2 mph - N/A   Clear
2:55 AM 40.1 °F 34.7 °F 27.0 °F 59% 29.81 in 10.0 mi WSW 8.1 mph - N/A   Clear
3:15 AM 39.7 °F 34.3 °F 26.6 °F 59% 29.80 in 10.0 mi West 8.1 mph - N/A   Clear
3:35 AM 39.6 °F 33.0 °F 26.4 °F 59% 29.79 in 10.0 mi West 10.4 mph - N/A   Clear
3:55 AM 38.3 °F 31.4 °F 26.4 °F 62% 29.78 in 10.0 mi West 10.4 mph - N/A   Clear
4:15 AM 37.4 °F - 26.2 °F 64% 29.77 in 10.0 mi North - - N/A   Clear
4:35 AM 36.3 °F 30.1 °F 26.1 °F 66% 29.76 in 10.0 mi WSW 8.1 mph - N/A   Clear
4:55 AM 36.0 °F 28.5 °F 25.7 °F 66% 29.76 in 10.0 mi WSW 10.4 mph - N/A   Clear
5:15 AM 34.9 °F 27.1 °F 25.5 °F 69% 29.76 in 10.0 mi WSW 10.4 mph - N/A   Clear
5:35 AM 34.9 °F 28.3 °F 25.3 °F 68% 29.74 in 10.0 mi WSW 8.1 mph - N/A   Clear
5:55 AM 34.7 °F 28.1 °F 25.3 °F 69% 29.73 in 10.0 mi WSW 8.1 mph - N/A   Clear
6:15 AM 35.6 °F 29.9 °F 25.2 °F 66% 29.72 in 10.0 mi WSW 6.9 mph - N/A   Clear
6:35 AM 34.7 °F 27.5 °F 25.0 °F 68% 29.71 in 10.0 mi WSW 9.2 mph - N/A   Clear
6:55 AM 34.7 °F 27.5 °F 24.8 °F 67% 29.70 in 10.0 mi WSW 9.2 mph - N/A   Clear
7:15 AM 36.5 °F 28.2 °F 24.8 °F 63% 29.70 in 10.0 mi WSW 12.7 mph - N/A   Clear
7:35 AM 39.2 °F 32.5 °F 23.9 °F 54% 29.69 in 10.0 mi WSW 10.4 mph - N/A   Clear
7:55 AM 42.8 °F 37.5 °F 23.0 °F 46% 29.68 in 10.0 mi WSW 9.2 mph - N/A   Clear
8:15 AM 43.9 °F 39.3 °F 23.2 °F 44% 29.67 in 10.0 mi WSW 8.1 mph 17.3 mph N/A   Clear
8:35 AM 45.0 °F 40.6 °F 24.1 °F 44% 29.65 in 10.0 mi WSW 8.1 mph - N/A   Clear
8:55 AM 46.4 °F 42.4 °F 25.0 °F 43% 29.65 in 10.0 mi SW 8.1 mph - N/A   Clear
9:15 AM 48.7 °F - 24.4 °F 39% 29.64 in 10.0 mi SW 4.6 mph - N/A   Clear
12:35 PM 71.6 °F - 10.6 °F 10% 29.48 in 10.0 mi South 16.1 mph 25.3 mph N/A   Clear
12:55 PM 72.7 °F - 10.0 °F 9% 29.46 in 10.0 mi South 17.3 mph 24.2 mph N/A   Clear
1:15 PM 72.5 °F - 8.2 °F 8% 29.45 in 10.0 mi SW 9.2 mph 24.2 mph N/A   Clear
1:35 PM 73.6 °F - 8.4 °F 8% 29.43 in 10.0 mi SW 15.0 mph 19.6 mph N/A   Clear
1:55 PM 75.9 °F - 9.1 °F 8% 29.40 in 10.0 mi South 17.3 mph 23.0 mph N/A   Clear
2:15 PM 75.2 °F - 7.2 °F 7% 29.37 in 10.0 mi SSE 20.7 mph 26.5 mph N/A   Clear
2:35 PM 74.7 °F - 6.1 °F 7% 29.36 in 10.0 mi South 20.7 mph - N/A   Clear
2:55 PM 72.9 °F - 6.1 °F 7% 29.34 in 10.0 mi South 17.3 mph 27.6 mph N/A   Clear
3:15 PM 72.5 °F - 2.8 °F 7% 29.33 in 10.0 mi South 16.1 mph 26.5 mph N/A   Clear
3:35 PM 74.7 °F - 8.1 °F 8% 29.31 in 10.0 mi SSW 13.8 mph 21.9 mph N/A   Clear
3:55 PM 75.6 °F - 7.5 °F 7% 29.30 in 10.0 mi South 19.6 mph 27.6 mph N/A   Clear
4:15 PM 75.9 °F - 8.1 °F 7% 29.28 in 10.0 mi South 17.3 mph 25.3 mph N/A   Clear
4:35 PM 72.9 °F - 8.1 °F 8% 29.27 in 10.0 mi South 19.6 mph 29.9 mph N/A   Clear
4:55 PM 70.9 °F - 9.0 °F 9% 29.26 in 10.0 mi SSE 17.3 mph 29.9 mph N/A   Clear
5:15 PM 69.8 °F - 11.1 °F 10% 29.26 in 10.0 mi South 12.7 mph 18.4 mph N/A   Clear
5:35 PM 69.4 °F - 10.9 °F 10% 29.25 in 10.0 mi South 10.4 mph - N/A   Scattered Clouds
5:55 PM 68.0 °F - 13.1 °F 12% 29.24 in 10.0 mi South 13.8 mph 19.6 mph N/A   Scattered Clouds
6:15 PM 66.2 °F - 13.5 °F 13% 29.24 in 10.0 mi SSE 9.2 mph - N/A   Mostly Cloudy
6:35 PM 64.4 °F - 13.8 °F 14% 29.24 in 10.0 mi SE 4.6 mph - N/A   Overcast
6:55 PM 64.2 °F - 14.0 °F 14% 29.25 in 10.0 mi NW 11.5 mph - N/A   Overcast
7:15 PM 66.4 °F - 15.3 °F 14% 29.27 in 10.0 mi NNW 23.0 mph 27.6 mph N/A   Overcast
7:35 PM 63.7 °F - 19.9 °F 19% 29.29 in 10.0 mi North 24.2 mph 36.8 mph N/A   Overcast
7:55 PM 63.0 °F - 20.8 °F 20% 29.27 in 10.0 mi NNW 26.5 mph 33.4 mph N/A   Overcast
8:15 PM 60.6 °F - 22.3 °F 23% 29.29 in 10.0 mi North 19.6 mph - N/A   Mostly Cloudy
8:35 PM 59.0 °F - 25.3 °F 28% 29.33 in 10.0 mi NW 27.6 mph 46.0 mph N/A   Scattered Clouds
8:55 PM 57.2 °F - 27.5 °F 32% 29.34 in 10.0 mi NW 32.2 mph 40.3 mph N/A   Mostly Cloudy
9:15 PM 55.8 °F - 28.2 °F 35% 29.34 in 10.0 mi NW 26.5 mph 38.0 mph N/A   Overcast
9:35 PM 53.4 °F - 29.3 °F 40% 29.32 in 10.0 mi NNW 21.9 mph 29.9 mph N/A   Mostly Cloudy
9:55 PM 51.8 °F - 29.3 °F 42% 29.34 in 10.0 mi NNW 16.1 mph 24.2 mph N/A   Scattered Clouds
10:15 PM 50.0 °F - 29.5 °F 45% 29.35 in 10.0 mi NW 19.6 mph - N/A   Clear
10:35 PM 49.8 °F - 28.2 °F 43% 29.36 in 10.0 mi NW 21.9 mph 28.8 mph N/A   Clear
10:55 PM 48.9 °F - 27.3 °F 43% 29.37 in 10.0 mi NW 24.2 mph 33.4 mph N/A   Clear
11:15 PM 47.3 °F - 26.2 °F 44% 29.36 in 10.0 mi NW 24.2 mph 31.1 mph N/A   Clear
11:35 PM 46.6 °F - 24.8 °F 43% 29.39 in 10.0 mi WNW 23.0 mph 28.8 mph N/A   Scattered Clouds
11:55 PM 46.9 °F - 23.0 °F 39% 29.41 in 10.0 mi WNW 24.2 mph 32.2 mph N/A   Overcast